Preview of NWS' New Version of Forecast
This preview is not operational and should not be used for support decisions.

Regional Weather Roundup (RWR)

Issued by National Weather Service (NWS)

                            
000
ASUS43 KLSX 180857
RWRMO 

WEATHER SUMMARY FOR MISSOURI
NATIONAL WEATHER SERVICE SPRINGFIELD MO
400 AM CDT THU JUL 18 2019

NOTE: "FAIR" INDICATES FEW OR NO CLOUDS BELOW 12,000 FEET WITH NO
       SIGNIFICANT WEATHER AND/OR OBSTRUCTIONS TO VISIBILITY.
       CURRENT SKY AND/OR WEATHER CONDITIONS ARE NOT AVAILABLE FOR
       CHILLICOTHE AND FARMINGTON.

MOZ001>031-035>038-043-044-053-054-181000-
...NORTHERN AND WESTERN MISSOURI...
  
CITY           SKY/WX    TMP DP  RH WIND       PRES   REMARKS
KANSAS CTY INT PTCLDY    80  71  74 S16G28    29.86R                  
LEE'S SUMMIT   CLEAR     80  70  71 S14G24    29.88R                  
ST JOSEPH      CLEAR     82  72  71 S15       29.82R                  
CHILLICOTHE      N/A     81  73  76 S12G22    29.85S                  
     
$$
MOZ066>068-077>081-088>096-101>105-181000-
...SOUTHWEST MISSOURI...
  
CITY           SKY/WX    TMP DP  RH WIND       PRES   REMARKS
SPRINGFIELD    CLEAR     78  72  81 S12       29.99F                  
JOPLIN         CLEAR     79  72  79 S13       29.95F                  
               
$$
MOZ032>034-039>042-045>050-055>058-069>072-181000-
...CENTRAL MISSOURI...  
  
CITY           SKY/WX    TMP DP  RH WIND       PRES   REMARKS
COLUMBIA       NOT AVBL                                               
ROLLA          CLEAR     70  67  90 S9        29.97F                  
SEDALIA        CLEAR     75  74  96 S17G25    29.91F                  
               
$$
MOZ051-052-059>065-181000-
...EAST CENTRAL MISSOURI...
  
CITY           SKY/WX    TMP DP  RH WIND       PRES   REMARKS
ST LOUIS INTL  MOCLDY    75  68  78 W10       29.92F                  
                   
$$
MOZ072>076-082>087-097>100-106>115-181000-
...SOUTH CENTRAL AND SOUTHEAST MISSOURI...
  
CITY           SKY/WX    TMP DP  RH WIND       PRES   REMARKS
CAPE GIRARDEAU FAIR      74  69  85 CALM      29.93                   
POPLAR BLUFF   FAIR      73  72  96 SW6       29.95R                  
WEST PLAINS    CLEAR     74  69  85 S8        30.02F                  
                                       
$$